Weather History for Key West NAF, FL

Change the Weather History Date:

Saturday, May 12, 2012

  Actual Average Record
Temperature  
Mean Temperature 82 °F -  
Max Temperature 88 °F 84 °F 91 °F (2003)
Min Temperature 78 °F 75 °F 69 °F (1958)
Cooling Degree Days 18    
Growing Degree Days 32 (Base 50)    
Moisture  
Dew Point 72 °F    
Average Humidity 73    
Maximum Humidity 83    
Minimum Humidity 63    
Precipitation  
Precipitation 0.00 in - - ()
Sea Level Pressure  
Sea Level Pressure 30.07 in    
Wind  
Wind Speed 11 mph (East)    
Max Wind Speed 20 mph    
Max Gust Speed 24 mph    
Visibility 10 miles    
Events      
Averages and records for this station are not official NWS values.
T = Trace of Precipitation, MM = Missing Value Source: NWS Daily Summary

Daily Weather History Graph

Daily Weather History Graph

Search for Another Location

Airport:

Trip Planner

Search our weather history database for the weather conditions in past years. The results will help you decide how hot, cold, wet, or windy it might be!

Date:

Astronomy

May. 12, 2012 Rise Set
Actual Time 6:44 AM EDT 8:02 PM EDT
Civil Twilight 6:19 AM EDT 8:26 PM EDT
Nautical Twilight 5:50 AM EDT 8:55 PM EDT
Astronomical Twilight 5:20 AM EDT 9:25 PM EDT
Moon 1:26 AM EDT (5/12) 1:07 PM EDT (5/12)
Length of Visible Light 14h 06m
Length of Day
13h 17m
Waning Gibbous, 53% of the Moon is Illuminated
May 12
Waning Gibbous
May 12
Last Quarter
May 20
New
May 28
First Quarter
Jun 4
Full

Hourly Weather History & Observations

Time (EDT) Temp. Heat Index Dew Point Humidity Pressure Visibility Wind Dir Wind Speed Gust Speed Precip Events Conditions
12:53 AM 80.1 °F 83.8 °F 72.0 °F 76% 30.06 in 10.0 mi ENE 6.9 mph - N/A   Clear
1:12 AM - - - N/A% - - North - - N/A   Unknown
1:53 AM 80.1 °F 83.6 °F 71.1 °F 74% 30.06 in 10.0 mi ENE 8.1 mph - N/A   Partly Cloudy
2:53 AM 80.1 °F 83.8 °F 72.0 °F 76% 30.04 in 10.0 mi ENE 3.5 mph - N/A   Partly Cloudy
3:07 AM 78.8 °F - 73.4 °F 83% 30.04 in 10.0 mi ESE 5.8 mph - N/A   Mostly Cloudy
3:28 AM 78.8 °F - 73.4 °F 83% 30.04 in 10.0 mi ESE 8.1 mph - N/A   Overcast
3:53 AM 79.0 °F - 73.0 °F 82% 30.04 in 10.0 mi ESE 10.4 mph - N/A   Mostly Cloudy
4:53 AM 79.0 °F - 72.0 °F 79% 30.04 in 10.0 mi ESE 11.5 mph - N/A   Clear
5:53 AM 78.1 °F - 71.1 °F 79% 30.06 in 10.0 mi ESE 9.2 mph - N/A   Clear
6:00 AM - - - N/A% - - North - - N/A   Unknown
6:01 AM 78.8 °F - 71.6 °F 78% 30.06 in 10.0 mi ESE 9.2 mph - N/A   Clear
6:53 AM 79.0 °F - 71.1 °F 77% 30.08 in 10.0 mi East 9.2 mph - N/A   Scattered Clouds
7:53 AM 81.0 °F 85.2 °F 72.0 °F 74% 30.09 in 10.0 mi ESE 10.4 mph - N/A   Scattered Clouds
8:53 AM 82.9 °F 88.0 °F 72.0 °F 69% 30.10 in 10.0 mi East 12.7 mph - N/A   Scattered Clouds
9:53 AM 84.9 °F 90.1 °F 71.1 °F 63% 30.11 in 10.0 mi East 12.7 mph - N/A   Partly Cloudy
10:53 AM 84.9 °F 91.4 °F 73.0 °F 67% 30.11 in 10.0 mi ESE 15.0 mph - N/A   Partly Cloudy
11:53 AM 86.0 °F 93.0 °F 73.0 °F 65% 30.11 in 10.0 mi East 15.0 mph - N/A   Scattered Clouds
12:53 PM 86.0 °F 93.0 °F 73.0 °F 65% 30.11 in 10.0 mi East 15.0 mph - N/A   Scattered Clouds
1:53 PM 87.1 °F 95.4 °F 73.9 °F 65% 30.08 in 10.0 mi East 17.3 mph - N/A   Scattered Clouds
2:53 PM 87.1 °F 95.4 °F 73.9 °F 65% 30.08 in 10.0 mi East 16.1 mph - N/A   Scattered Clouds
3:53 PM 87.1 °F 95.4 °F 73.9 °F 65% 30.06 in 10.0 mi East 17.3 mph - N/A   Scattered Clouds
4:45 PM - - - N/A% - - North - - N/A   Unknown
4:53 PM 84.9 °F 91.4 °F 73.0 °F 67% 30.05 in 10.0 mi East 18.4 mph - N/A   Scattered Clouds
5:53 PM 82.9 °F 88.0 °F 72.0 °F 69% 30.04 in 10.0 mi East 18.4 mph - N/A   Mostly Cloudy
6:53 PM 82.0 °F 86.3 °F 71.1 °F 69% 30.04 in 10.0 mi East 19.6 mph - N/A   Scattered Clouds
7:15 PM - - - N/A% - - North - - N/A   Unknown
7:53 PM 81.0 °F 84.4 °F 70.0 °F 69% 30.04 in 10.0 mi East 18.4 mph 23.0 mph N/A   Scattered Clouds
8:53 PM 80.1 °F 83.6 °F 71.1 °F 74% 30.06 in 10.0 mi East 13.8 mph - N/A   Scattered Clouds
9:53 PM 80.1 °F 83.6 °F 71.1 °F 74% 30.08 in 10.0 mi East 16.1 mph 24.2 mph N/A   Partly Cloudy
10:53 PM 80.1 °F 83.6 °F 71.1 °F 74% 30.08 in 10.0 mi East 16.1 mph - N/A   Partly Cloudy
11:30 PM - - - N/A% - - North - - N/A   Unknown
11:53 PM 79.0 °F - 71.1 °F 77% 30.08 in 10.0 mi East 18.4 mph - N/A   Partly Cloudy